Darstellungsparameter: Aktuell verwendete Einstellungen:
Skalierung der Graphiken ... ?
xyx+y,   Skalierungsfaktor:      Skalierung: Modus: x, Faktor: 1
Darstellungszeitraum ... ?
Vom - - bis: - -   Zeitraum: 22.03.2020 - 24.03.2020
Min/Max/Avg-Anzeige ... ?
Zeige MMA aktuell
Zeige MMA Monat
Zeige MMA alles
Zeige --A aktuell
Zeige --A Monat
Zeige --A alles
Keine MMA-Anzeige
MMA:
Keine MMA-Graphiken
MMA-Basis: 22.03.2020 - 24.03.2020
Quicknavigation für Darstellung... ?
Tage:      1T, 2T, 3T, 5T -1T -2T -3T -5T +1T +2T +3T +5T
Wochen: 1W, 2W, 3W -1W -2W -3W +1W +2W +3W
Monate: 1M, 3M, 6M -1M -3M -6M +1M +3M +6M
Jahre:    1J, 3J, 5J, 10J -1J -3J -5J -10J +1J +3J +5J +10J
Nutze für die Darstellung ... ?
Originaldaten oder Mittelwerte auf ...
Stundenbasis Tagesbasis Wochenbasis
Monatsbasis Jahresbasis      Datenbasis: Original-Daten
Darstellen als:
Statistik (Auto) Statistik J:M      Darstellung:
Zur Graphik,    zurück zur Übersicht aller Sensoren.
 
Tabellarische Datenbersicht: ?
 
Sensor: Nr:Datum:Temp:Feuchte:
Aussen-T/F 1 22-03-2020 00:00:18 1.4 C 35 %
2 22-03-2020 00:10:18 1.5 C 35 %
3 22-03-2020 00:20:17 0.9 C 37 %
4 22-03-2020 00:30:17 0.7 C 38 %
5 22-03-2020 00:40:17 1.2 C 36 %
6 22-03-2020 00:50:17 0.9 C 37 %
7 22-03-2020 01:00:18 1.5 C 35 %
8 22-03-2020 01:10:18 1.5 C 35 %
9 22-03-2020 01:20:18 1.1 C 35 %
10 22-03-2020 01:30:18 1.1 C 35 %
11 22-03-2020 01:40:18 0.9 C 36 %
12 22-03-2020 01:50:18 1 C 35 %
13 22-03-2020 02:00:18 1 C 35 %
14 22-03-2020 02:10:18 0.1 C 38 %
15 22-03-2020 02:20:17 0.3 C 38 %
16 22-03-2020 02:30:18 0.5 C 37 %
17 22-03-2020 02:40:18 0.5 C 37 %
18 22-03-2020 02:50:18 0.4 C 37 %
19 22-03-2020 03:00:18 0.2 C 37 %
20 22-03-2020 03:10:18 0.7 C 37 %
21 22-03-2020 03:20:18 -0.4 C 38 %
22 22-03-2020 03:30:18 -0.1 C 38 %
23 22-03-2020 03:40:18 -0.4 C 39 %
24 22-03-2020 03:50:17 -0.3 C 39 %
25 22-03-2020 04:00:17 -0.2 C 38 %
Sensor: Nr:Datum:Temp:Feuchte:
Aussen-T/F 26 22-03-2020 04:10:17 0 C 37 %
27 22-03-2020 04:20:17 -0.4 C 38 %
28 22-03-2020 04:30:17 0.3 C 37 %
29 22-03-2020 04:40:17 0.1 C 37 %
30 22-03-2020 04:50:17 -0.2 C 38 %
31 22-03-2020 05:00:18 0.1 C 37 %
32 22-03-2020 05:10:18 -0.3 C 37 %
33 22-03-2020 05:20:17 -0.4 C 37 %
34 22-03-2020 05:30:18 -0.5 C 38 %
35 22-03-2020 05:40:18 -0.7 C 38 %
36 22-03-2020 05:50:17 -1 C 39 %
37 22-03-2020 06:00:17 -1.1 C 39 %
38 22-03-2020 06:10:17 -0.8 C 39 %
39 22-03-2020 06:20:17 0.1 C 37 %
40 22-03-2020 06:30:17 -0.3 C 37 %
41 22-03-2020 06:40:17 -0.4 C 37 %
42 22-03-2020 06:50:18 0 C 36 %
43 22-03-2020 07:00:18 -0.3 C 37 %
44 22-03-2020 07:10:18 -0.2 C 37 %
45 22-03-2020 07:20:18 -0.4 C 37 %
46 22-03-2020 07:30:18 -0.1 C 36 %
47 22-03-2020 07:40:18 -0.2 C 37 %
48 22-03-2020 07:50:17 -0.1 C 36 %
49 22-03-2020 08:00:18 -0.1 C 36 %
50 22-03-2020 08:10:18 0.3 C 36 %
Sensor: Nr:Datum:Temp:Feuchte:
Aussen-T/F 51 22-03-2020 08:20:18 0.3 C 35 %
52 22-03-2020 08:30:18 0.5 C 35 %
53 22-03-2020 08:40:18 0.8 C 35 %
54 22-03-2020 08:50:18 0.4 C 35 %
55 22-03-2020 09:00:18 0.8 C 35 %
56 22-03-2020 09:10:18 1.2 C 32 %
57 22-03-2020 09:20:18 1.6 C 32 %
58 22-03-2020 09:30:18 2.2 C 30 %
59 22-03-2020 09:40:18 2.5 C 27 %
60 22-03-2020 09:50:17 2.8 C 26 %
61 22-03-2020 10:00:18 3.3 C 25 %
62 22-03-2020 10:10:18 3.6 C 25 %
63 22-03-2020 10:20:18 3.9 C 20 %
64 22-03-2020 10:30:18 4.4 C 20 %
65 22-03-2020 10:40:18 4.6 C 20 %
66 22-03-2020 10:50:17 5.2 C 20 %
67 22-03-2020 11:00:18 5.5 C 20 %
68 22-03-2020 11:10:18 6.3 C 20 %
69 22-03-2020 11:20:17 6.5 C 20 %
70 22-03-2020 11:30:18 6.7 C 20 %
71 22-03-2020 11:40:18 6.7 C 20 %
72 22-03-2020 11:50:17 6.5 C 20 %
73 22-03-2020 12:00:18 7 C 20 %
74 22-03-2020 12:10:18 7.4 C 20 %
75 22-03-2020 12:20:18 7.3 C 20 %
Sensor: Nr:Datum:Temp:Feuchte:
Aussen-T/F 76 22-03-2020 12:30:17 6.9 C 20 %
77 22-03-2020 12:40:17 8 C 20 %
78 22-03-2020 12:50:18 8.5 C 20 %
79 22-03-2020 13:00:18 10.1 C 20 %
80 22-03-2020 13:10:18 11.1 C 20 %
81 22-03-2020 13:20:17 11.9 C 20 %
82 22-03-2020 13:30:18 11.6 C 20 %
83 22-03-2020 13:40:18 10.9 C 20 %
84 22-03-2020 13:50:18 10.3 C 20 %
85 22-03-2020 14:00:17 9.6 C 20 %
86 22-03-2020 14:10:17 10.2 C 20 %
87 22-03-2020 14:20:17 12.2 C 20 %
88 22-03-2020 14:30:17 12.6 C 20 %
89 22-03-2020 14:40:17 14.4 C 20 %
90 22-03-2020 14:50:17 14.4 C 20 %
91 22-03-2020 15:00:18 15 C 20 %
92 22-03-2020 15:10:18 14.4 C 20 %
93 22-03-2020 15:20:17 14.7 C 20 %
94 22-03-2020 15:30:17 13.6 C 20 %
95 22-03-2020 15:40:17 13.7 C 20 %
96 22-03-2020 15:50:18 15.4 C 20 %
97 22-03-2020 16:00:18 16.2 C 20 %
98 22-03-2020 16:10:18 14.9 C 20 %
99 22-03-2020 16:20:18 14.1 C 20 %
100 22-03-2020 16:30:18 13.3 C 20 %
Sensor: Nr:Datum:Temp:Feuchte:
Aussen-T/F 101 22-03-2020 16:40:18 13.2 C 20 %
102 22-03-2020 16:50:17 11.7 C 20 %
103 22-03-2020 17:00:17 10.7 C 20 %
104 22-03-2020 17:10:17 9.9 C 20 %
105 22-03-2020 17:20:17 9.7 C 20 %
106 22-03-2020 17:30:17 9.8 C 20 %
107 22-03-2020 17:40:17 9.5 C 20 %
108 22-03-2020 17:50:17 8.9 C 20 %
109 22-03-2020 18:00:18 8.6 C 20 %
110 22-03-2020 18:10:18 8.4 C 20 %
111 22-03-2020 18:20:17 7.9 C 20 %
112 22-03-2020 18:30:17 7.5 C 20 %
113 22-03-2020 18:40:17 7 C 20 %
114 22-03-2020 18:50:17 6.5 C 20 %
115 22-03-2020 19:00:17 5.6 C 20 %
116 22-03-2020 19:10:17 4.9 C 21 %
117 22-03-2020 19:20:17 5.2 C 20 %
118 22-03-2020 19:30:17 4.3 C 26 %
119 22-03-2020 19:40:17 3.8 C 27 %
120 22-03-2020 19:50:18 3.7 C 28 %
121 22-03-2020 20:00:18 3.6 C 28 %
122 22-03-2020 20:10:18 3.6 C 27 %
123 22-03-2020 20:20:17 3.6 C 26 %
124 22-03-2020 20:30:17 3.2 C 26 %
125 22-03-2020 20:40:17 3 C 26 %
Sensor: Nr:Datum:Temp:Feuchte:
Aussen-T/F 126 22-03-2020 20:50:17 2.5 C 30 %
127 22-03-2020 21:00:17 2.9 C 26 %
128 22-03-2020 21:10:17 2.7 C 27 %
129 22-03-2020 21:20:17 2.3 C 30 %
130 22-03-2020 21:30:17 2.2 C 29 %
131 22-03-2020 21:40:17 1.8 C 30 %
132 22-03-2020 21:50:18 1.5 C 31 %
133 22-03-2020 22:00:18 2 C 30 %
134 22-03-2020 22:10:18 2.5 C 26 %
135 22-03-2020 22:20:17 1.8 C 30 %
136 22-03-2020 22:30:17 1.5 C 29 %
137 22-03-2020 22:40:17 1.3 C 31 %
138 22-03-2020 22:50:17 1.4 C 30 %
139 22-03-2020 23:00:17 0.7 C 33 %
140 22-03-2020 23:10:17 1.1 C 30 %
141 22-03-2020 23:20:17 0.8 C 32 %
142 22-03-2020 23:30:18 0.3 C 33 %
143 22-03-2020 23:40:18 0.3 C 34 %
144 22-03-2020 23:50:18 0.6 C 33 %
145 23-03-2020 00:00:18 0.4 C 34 %
146 23-03-2020 00:10:18 0 C 33 %
147 23-03-2020 00:20:17 -0.2 C 33 %
148 23-03-2020 00:30:17 -0.5 C 35 %
149 23-03-2020 00:40:17 -0.7 C 36 %
150 23-03-2020 00:50:18 -1.1 C 36 %
Sensor: Nr:Datum:Temp:Feuchte:
Aussen-T/F 151 23-03-2020 01:00:17 -0.6 C 35 %
152 23-03-2020 01:10:17 -0.7 C 36 %
153 23-03-2020 01:20:17 -0.9 C 35 %
154 23-03-2020 01:30:18 -0.8 C 35 %
155 23-03-2020 01:40:18 -1.1 C 35 %
156 23-03-2020 01:50:18 -0.8 C 35 %
157 23-03-2020 02:00:18 -1.1 C 35 %
158 23-03-2020 02:10:18 -1.4 C 35 %
159 23-03-2020 02:20:17 -1.2 C 35 %
160 23-03-2020 02:30:17 -1.2 C 35 %
161 23-03-2020 02:40:17 -1.2 C 35 %
162 23-03-2020 02:50:17 -1.3 C 35 %
163 23-03-2020 03:00:17 -1.6 C 35 %
164 23-03-2020 03:10:18 -1.9 C 35 %
165 23-03-2020 03:20:18 -1.6 C 35 %
166 23-03-2020 03:30:18 -1.7 C 35 %
167 23-03-2020 03:40:18 -1.9 C 35 %
168 23-03-2020 03:50:18 -1.8 C 35 %
169 23-03-2020 04:00:18 -1.8 C 35 %
170 23-03-2020 04:10:18 -2.1 C 35 %
171 23-03-2020 04:20:17 -1.9 C 35 %
172 23-03-2020 04:30:17 -2 C 35 %
173 23-03-2020 04:40:17 -2.1 C 35 %
174 23-03-2020 04:50:17 -2.7 C 36 %
175 23-03-2020 05:00:18 -2.5 C 36 %
Sensor: Nr:Datum:Temp:Feuchte:
Aussen-T/F 176 23-03-2020 05:10:18 -2.4 C 36 %
177 23-03-2020 05:20:17 -2.3 C 36 %
178 23-03-2020 05:30:18 -2.4 C 35 %
179 23-03-2020 05:40:18 -2.7 C 36 %
180 23-03-2020 05:50:17 -2.7 C 36 %
181 23-03-2020 06:00:18 -2.6 C 36 %
182 23-03-2020 06:10:18 -2.9 C 36 %
183 23-03-2020 06:20:17 -2.6 C 36 %
184 23-03-2020 06:30:18 -2.8 C 36 %
185 23-03-2020 06:40:18 -3.2 C 36 %
186 23-03-2020 06:50:18 -3 C 36 %
187 23-03-2020 07:00:18 -3 C 36 %
188 23-03-2020 07:10:18 -3.1 C 36 %
189 23-03-2020 07:20:18 -2.5 C 35 %
190 23-03-2020 07:30:18 -2.7 C 36 %
191 23-03-2020 07:40:18 -2.6 C 36 %
192 23-03-2020 07:50:18 -1.9 C 34 %
193 23-03-2020 08:00:18 -2 C 35 %
194 23-03-2020 08:10:18 -1.4 C 32 %
195 23-03-2020 08:20:17 -1.1 C 31 %
196 23-03-2020 08:30:18 -0.2 C 27 %
197 23-03-2020 08:40:18 -0.2 C 26 %
198 23-03-2020 08:50:18 -0.3 C 25 %
199 23-03-2020 09:00:18 0 C 23 %
200 23-03-2020 09:10:18 0.2 C 23 %
Sensor: Nr:Datum:Temp:Feuchte:
Aussen-T/F 201 23-03-2020 09:20:18 0.5 C 20 %
202 23-03-2020 09:30:17 0.7 C 20 %
203 23-03-2020 09:40:17 1.5 C 20 %
204 23-03-2020 09:50:18 1.8 C 20 %
205 23-03-2020 10:00:18 2.4 C 20 %
206 23-03-2020 10:10:18 2.7 C 20 %
207 23-03-2020 10:20:18 3 C 20 %
208 23-03-2020 10:30:17 3.8 C 20 %
209 23-03-2020 10:40:17 4.1 C 20 %
210 23-03-2020 10:50:17 4.7 C 20 %
211 23-03-2020 11:00:17 5.5 C 20 %
212 23-03-2020 11:10:17 5.5 C 20 %
213 23-03-2020 11:20:17 6 C 20 %
214 23-03-2020 11:30:18 6.7 C 20 %
215 23-03-2020 11:40:18 6.2 C 20 %
216 23-03-2020 11:50:17 6.3 C 20 %
217 23-03-2020 12:00:18 7 C 20 %
218 23-03-2020 12:10:18 7.4 C 20 %
219 23-03-2020 12:20:18 7.8 C 20 %
220 23-03-2020 12:30:18 7.5 C 20 %
221 23-03-2020 12:40:18 8.1 C 20 %
222 23-03-2020 12:50:18 8.7 C 20 %
223 23-03-2020 13:00:17 10.4 C 20 %
224 23-03-2020 13:10:17 10.7 C 20 %
225 23-03-2020 13:20:17 11.9 C 20 %
Sensor: Nr:Datum:Temp:Feuchte:
Aussen-T/F 226 23-03-2020 13:30:17 11.4 C 20 %
227 23-03-2020 13:40:17 10 C 20 %
228 23-03-2020 13:50:17 9.8 C 20 %
229 23-03-2020 14:00:18 9.2 C 20 %
230 23-03-2020 14:10:18 10.5 C 20 %
231 23-03-2020 14:20:18 12.9 C 20 %
232 23-03-2020 14:30:18 13 C 20 %
233 23-03-2020 14:40:18 14.2 C 20 %
234 23-03-2020 14:50:18 14.3 C 20 %
235 23-03-2020 15:00:18 14.3 C 20 %
236 23-03-2020 15:10:18 14.4 C 20 %
237 23-03-2020 15:20:17 14.7 C 20 %
238 23-03-2020 15:30:17 13.5 C 20 %
239 23-03-2020 15:40:17 14.4 C 20 %
240 23-03-2020 15:50:17 14.1 C 20 %
241 23-03-2020 16:00:17 13.8 C 20 %
242 23-03-2020 16:10:17 14.7 C 20 %
243 23-03-2020 16:20:17 15.3 C 20 %
244 23-03-2020 16:30:18 14.7 C 20 %
245 23-03-2020 16:40:18 14.8 C 20 %
246 23-03-2020 16:50:17 11.4 C 20 %
247 23-03-2020 17:00:18 10.1 C 20 %
248 23-03-2020 17:10:18 9.7 C 20 %
249 23-03-2020 17:20:18 9.4 C 20 %
250 23-03-2020 17:30:18 9 C 20 %
Sensor: Nr:Datum:Temp:Feuchte:
Aussen-T/F 251 23-03-2020 17:40:18 9 C 20 %
252 23-03-2020 17:50:17 8.6 C 20 %
253 23-03-2020 18:00:18 8.3 C 20 %
254 23-03-2020 18:10:18 7.6 C 20 %
255 23-03-2020 18:20:17 7.4 C 20 %
256 23-03-2020 18:30:18 7 C 20 %
257 23-03-2020 18:40:18 5.3 C 20 %
258 23-03-2020 18:50:18 4.4 C 20 %
259 23-03-2020 19:00:18 4.2 C 20 %
260 23-03-2020 19:10:18 4.1 C 20 %
261 23-03-2020 19:20:17 3.7 C 20 %
262 23-03-2020 19:30:18 3.6 C 20 %
263 23-03-2020 19:40:18 3.4 C 20 %
264 23-03-2020 19:50:18 2.7 C 20 %
265 23-03-2020 20:00:17 2.9 C 20 %
266 23-03-2020 20:10:17 2.6 C 20 %
267 23-03-2020 20:20:17 2.5 C 20 %
268 23-03-2020 20:30:18 2.3 C 20 %
269 23-03-2020 20:40:18 2.4 C 20 %
270 23-03-2020 20:50:18 2.3 C 20 %
271 23-03-2020 21:00:18 2.1 C 20 %
272 23-03-2020 21:10:18 0.9 C 27 %
273 23-03-2020 21:20:17 1 C 26 %
274 23-03-2020 21:30:18 1.1 C 28 %
275 23-03-2020 21:40:18 0.7 C 29 %
Sensor: Nr:Datum:Temp:Feuchte:
Aussen-T/F 276 23-03-2020 21:50:18 0.2 C 30 %
277 23-03-2020 22:00:17 -0.4 C 31 %
278 23-03-2020 22:10:18 -0.9 C 35 %
279 23-03-2020 22:20:18 -0.2 C 34 %
280 23-03-2020 22:30:18 -0.9 C 35 %
281 23-03-2020 22:40:18 -0.9 C 35 %
282 23-03-2020 22:50:18 -1.3 C 35 %
283 23-03-2020 23:00:18 -1.4 C 36 %
284 23-03-2020 23:10:18 -1.6 C 36 %
285 23-03-2020 23:20:17 -1.7 C 36 %
286 23-03-2020 23:30:17 -1.7 C 37 %
287 23-03-2020 23:40:17 -1.9 C 37 %
288 23-03-2020 23:50:18 -1.8 C 37 %
289 24-03-2020 00:00:18 -1.9 C 36 %
290 24-03-2020 00:10:18 -2 C 36 %
291 24-03-2020 00:20:17 -2.2 C 36 %
292 24-03-2020 00:30:18 -2.4 C 37 %
293 24-03-2020 00:40:18 -2.4 C 38 %
294 24-03-2020 00:50:18 -2.5 C 38 %
295 24-03-2020 01:00:18 -2.3 C 37 %
296 24-03-2020 01:10:18 -2.6 C 37 %
297 24-03-2020 01:20:18 -2.7 C 38 %
298 24-03-2020 01:30:18 -2.7 C 38 %
299 24-03-2020 01:40:18 -3 C 38 %
300 24-03-2020 01:50:18 -2.5 C 37 %
Sensor: Nr:Datum:Temp:Feuchte:
Aussen-T/F 301 24-03-2020 02:00:18 -2.6 C 38 %
302 24-03-2020 02:10:18 -2.8 C 38 %
303 24-03-2020 02:20:17 -3.1 C 38 %
304 24-03-2020 02:30:17 -3.2 C 38 %
305 24-03-2020 02:40:17 -3.3 C 38 %
306 24-03-2020 02:50:17 -3.2 C 38 %
307 24-03-2020 03:00:17 -3.4 C 38 %
308 24-03-2020 03:10:17 -3.5 C 38 %
309 24-03-2020 03:20:17 -3.6 C 39 %
310 24-03-2020 03:30:17 -3.6 C 38 %
311 24-03-2020 03:40:17 -3.7 C 38 %
312 24-03-2020 03:50:17 -3.9 C 39 %
313 24-03-2020 04:00:18 -3.7 C 39 %
314 24-03-2020 04:10:18 -3.9 C 38 %
315 24-03-2020 04:20:18 -4 C 38 %
316 24-03-2020 04:30:18 -4 C 38 %
317 24-03-2020 04:40:18 -4 C 38 %
318 24-03-2020 04:50:17 -3.9 C 38 %
319 24-03-2020 05:00:17 -4.2 C 38 %
320 24-03-2020 05:10:17 -4.3 C 39 %
321 24-03-2020 05:20:17 -4.2 C 38 %
322 24-03-2020 05:30:18 -4.3 C 38 %
323 24-03-2020 05:40:18 -4.4 C 38 %
324 24-03-2020 05:50:18 -4.6 C 39 %
325 24-03-2020 06:00:17 -4.7 C 39 %
Sensor: Nr:Datum:Temp:Feuchte:
Aussen-T/F 326 24-03-2020 06:10:18 -4.7 C 38 %
327 24-03-2020 06:20:17 -4.7 C 39 %
328 24-03-2020 06:30:18 -4.7 C 38 %
329 24-03-2020 06:40:18 -4.6 C 39 %
330 24-03-2020 06:50:18 -4.4 C 38 %
331 24-03-2020 07:00:18 -4.5 C 39 %
332 24-03-2020 07:10:18 -4.4 C 39 %
333 24-03-2020 07:20:18 -4.3 C 39 %
334 24-03-2020 07:30:18 -4.2 C 39 %
335 24-03-2020 07:40:18 -4 C 39 %
336 24-03-2020 07:50:17 -3.8 C 39 %
337 24-03-2020 08:00:17 -3.7 C 39 %
338 24-03-2020 08:10:17 -3.5 C 38 %
339 24-03-2020 08:20:17 -3.3 C 38 %
340 24-03-2020 08:30:17 -2.5 C 38 %
341 24-03-2020 08:40:17 -2.4 C 37 %
342 24-03-2020 08:50:17 -2 C 37 %
343 24-03-2020 09:00:17 -1.6 C 36 %
344 24-03-2020 09:10:17 -0.7 C 35 %
345 24-03-2020 09:20:17 -0.2 C 34 %
346 24-03-2020 09:30:17 0.4 C 30 %
347 24-03-2020 09:40:17 1 C 27 %
348 24-03-2020 09:50:18 1.7 C 23 %
349 24-03-2020 10:00:18 3 C 20 %
350 24-03-2020 10:10:18 3.3 C 20 %
Sensor: Nr:Datum:Temp:Feuchte:
Aussen-T/F 351 24-03-2020 10:20:17 3.9 C 20 %
352 24-03-2020 10:30:17 4.3 C 20 %
353 24-03-2020 10:40:17 4.7 C 20 %
354 24-03-2020 10:50:17 5.7 C 20 %
355 24-03-2020 11:00:18 5.7 C 20 %
356 24-03-2020 11:10:18 6.4 C 20 %
357 24-03-2020 11:20:17 6.9 C 20 %
358 24-03-2020 11:30:17 7.9 C 20 %
359 24-03-2020 11:40:17 7.2 C 20 %
360 24-03-2020 11:50:18 6.8 C 20 %
361 24-03-2020 12:00:18 7.8 C 20 %
362 24-03-2020 12:10:18 8.6 C 20 %
363 24-03-2020 12:20:17 8.2 C 20 %
364 24-03-2020 12:30:17 8.2 C 20 %
365 24-03-2020 12:40:17 9 C 20 %
366 24-03-2020 12:50:17 9.2 C 20 %
367 24-03-2020 13:00:18 10.4 C 20 %
368 24-03-2020 13:10:18 11.7 C 20 %
369 24-03-2020 13:20:17 12.5 C 20 %
370 24-03-2020 13:30:17 13 C 20 %
371 24-03-2020 13:40:17 11.9 C 20 %
372 24-03-2020 13:50:18 11 C 20 %
373 24-03-2020 14:00:17 10.8 C 20 %
374 24-03-2020 14:10:17 11.3 C 20 %
375 24-03-2020 14:20:17 13.7 C 20 %
Sensor: Nr:Datum:Temp:Feuchte:
Aussen-T/F 376 24-03-2020 14:30:17 12.2 C 20 %
377 24-03-2020 14:40:17 14.4 C 20 %
378 24-03-2020 14:50:18 13.4 C 20 %
379 24-03-2020 15:00:18 13.5 C 20 %
380 24-03-2020 15:10:18 14.1 C 20 %
381 24-03-2020 15:20:18 15.3 C 20 %
382 24-03-2020 15:30:18 14.1 C 20 %
383 24-03-2020 15:40:18 15.4 C 20 %
384 24-03-2020 15:50:18 14.9 C 20 %
385 24-03-2020 16:00:18 14.8 C 20 %
386 24-03-2020 16:10:18 14.8 C 20 %
387 24-03-2020 16:20:18 14.1 C 20 %
388 24-03-2020 16:30:18 13.6 C 20 %
389 24-03-2020 16:40:18 14.3 C 20 %
390 24-03-2020 16:50:18 11.4 C 20 %
391 24-03-2020 17:00:18 10.8 C 20 %
392 24-03-2020 17:10:18 10.4 C 20 %
393 24-03-2020 17:20:18 10.1 C 20 %
394 24-03-2020 17:30:18 9.9 C 20 %
395 24-03-2020 17:40:18 9.6 C 20 %
396 24-03-2020 17:50:17 9.3 C 20 %
397 24-03-2020 18:00:17 9 C 20 %
398 24-03-2020 18:10:17 8.6 C 20 %
399 24-03-2020 18:20:17 8.4 C 20 %
400 24-03-2020 18:30:17 7.6 C 20 %
Sensor: Nr:Datum:Temp:Feuchte:
Aussen-T/F 401 24-03-2020 18:40:18 6.4 C 20 %
402 24-03-2020 18:50:17 5.4 C 20 %
403 24-03-2020 19:00:18 4.9 C 20 %
404 24-03-2020 19:10:18 4.6 C 20 %
405 24-03-2020 19:20:18 4.5 C 20 %
406 24-03-2020 19:30:18 4.1 C 20 %
407 24-03-2020 19:40:18 3.9 C 20 %
408 24-03-2020 19:50:17 3.6 C 20 %
409 24-03-2020 20:00:18 3.6 C 20 %
410 24-03-2020 20:10:18 3.5 C 20 %
411 24-03-2020 20:20:17 3.4 C 20 %
412 24-03-2020 20:30:18 3.4 C 20 %
413 24-03-2020 20:40:18 2.9 C 20 %
414 24-03-2020 20:50:18 2.7 C 20 %
415 24-03-2020 21:00:18 2.7 C 20 %
416 24-03-2020 21:10:18 2.6 C 20 %
417 24-03-2020 21:20:17 2.3 C 20 %
418 24-03-2020 21:30:17 2.3 C 20 %
419 24-03-2020 21:40:17 2.2 C 20 %
420 24-03-2020 21:50:17 2.2 C 20 %
421 24-03-2020 22:00:18 1.7 C 20 %
422 24-03-2020 22:10:18 1.6 C 20 %
423 24-03-2020 22:20:17 1.6 C 20 %
424 24-03-2020 22:30:18 0.3 C 25 %
425 24-03-2020 22:40:18 -0.2 C 30 %
Sensor: Nr:Datum:Temp:Feuchte:
Aussen-T/F 426 24-03-2020 22:50:17 -0.7 C 30 %
427 24-03-2020 23:00:18 -1.2 C 32 %
428 24-03-2020 23:10:18 -1.1 C 31 %
429 24-03-2020 23:20:17 -1.4 C 31 %
430 24-03-2020 23:30:18 -1.7 C 30 %
431 24-03-2020 23:40:18 -0.9 C 30 %
432 24-03-2020 23:50:18 -1.2 C 30 %
Sensor: Nr:Datum:Temp:Feuchte:
G-T/H 1 22-03-2020 00:00:18 10.7 C 60 %
2 22-03-2020 00:10:18 10.6 C 60 %
3 22-03-2020 00:20:17 10.6 C 60 %
4 22-03-2020 00:30:17 10.6 C 60 %
5 22-03-2020 00:40:17 10.5 C 60 %
6 22-03-2020 00:50:17 10.5 C 60 %
7 22-03-2020 01:00:18 10.5 C 59 %
8 22-03-2020 01:10:18 10.5 C 59 %
9 22-03-2020 01:20:18 10.4 C 59 %
10 22-03-2020 01:30:18 10.4 C 59 %
11 22-03-2020 01:40:18 10.4 C 59 %
12 22-03-2020 01:50:18 10.4 C 59 %
13 22-03-2020 02:00:18 10.4 C 59 %
14 22-03-2020 02:10:18 10.3 C 59 %
15 22-03-2020 02:20:17 10.3 C 58 %
16 22-03-2020 02:30:18 10.3 C 58 %
17 22-03-2020 02:40:18 10.2 C 58 %
18 22-03-2020 02:50:18 10.2 C 58 %
19 22-03-2020 03:00:18 10.2 C 58 %
20 22-03-2020 03:10:18 10.2 C 58 %
21 22-03-2020 03:20:18 10.1 C 58 %
22 22-03-2020 03:30:18 10.1 C 58 %
23 22-03-2020 03:40:18 10.1 C 58 %
24 22-03-2020 03:50:17 10.1 C 58 %
25 22-03-2020 04:00:17 10.1 C 58 %
Sensor: Nr:Datum:Temp:Feuchte:
G-T/H 26 22-03-2020 04:10:17 10 C 58 %
27 22-03-2020 04:20:17 10 C 58 %
28 22-03-2020 04:30:17 10 C 58 %
29 22-03-2020 04:40:17 10 C 59 %
30 22-03-2020 04:50:17 10 C 59 %
31 22-03-2020 05:00:18 10 C 59 %
32 22-03-2020 05:10:18 10 C 59 %
33 22-03-2020 05:20:17 9.9 C 60 %
34 22-03-2020 05:30:18 9.9 C 60 %
35 22-03-2020 05:40:18 9.9 C 61 %
36 22-03-2020 05:50:17 9.8 C 61 %
37 22-03-2020 06:00:17 9.9 C 61 %
38 22-03-2020 06:10:17 9.8 C 61 %
39 22-03-2020 06:20:17 9.8 C 61 %
40 22-03-2020 06:30:17 9.8 C 61 %
41 22-03-2020 06:40:17 9.8 C 61 %
42 22-03-2020 06:50:18 9.8 C 61 %
43 22-03-2020 07:00:18 9.8 C 61 %
44 22-03-2020 07:10:18 9.7 C 61 %
45 22-03-2020 07:20:18 9.7 C 61 %
46 22-03-2020 07:30:18 9.7 C 61 %
47 22-03-2020 07:40:18 9.7 C 61 %
48 22-03-2020 07:50:17 9.7 C 61 %
49 22-03-2020 08:00:18 9.7 C 61 %
50 22-03-2020 08:10:18 9.6 C 61 %
Sensor: Nr:Datum:Temp:Feuchte:
G-T/H 51 22-03-2020 08:20:18 9.6 C 61 %
52 22-03-2020 08:30:18 9.6 C 61 %
53 22-03-2020 08:40:18 9.6 C 61 %
54 22-03-2020 08:50:18 9.5 C 61 %
55 22-03-2020 09:00:18 9.5 C 61 %
56 22-03-2020 09:10:18 9.5 C 62 %
57 22-03-2020 09:20:18 9.5 C 62 %
58 22-03-2020 09:30:18 9.5 C 61 %
59 22-03-2020 09:40:18 9.5 C 61 %
60 22-03-2020 09:50:17 9.5 C 61 %
61 22-03-2020 10:00:18 9.4 C 61 %
62 22-03-2020 10:10:18 9.4 C 62 %
63 22-03-2020 10:20:18 9.4 C 62 %
64 22-03-2020 10:30:18 9.4 C 61 %
65 22-03-2020 10:40:18 9.4 C 61 %
66 22-03-2020 10:50:17 9.4 C 61 %
67 22-03-2020 11:00:18 9.4 C 61 %
68 22-03-2020 11:10:18 9.4 C 61 %
69 22-03-2020 11:20:17 9.3 C 61 %
70 22-03-2020 11:30:18 9.3 C 61 %
71 22-03-2020 11:40:18 9.3 C 61 %
72 22-03-2020 11:50:17 9.3 C 61 %
73 22-03-2020 12:00:18 9.4 C 61 %
74 22-03-2020 12:10:18 9.3 C 61 %
75 22-03-2020 12:20:18 9.3 C 61 %
Sensor: Nr:Datum:Temp:Feuchte:
G-T/H 76 22-03-2020 12:30:17 9.3 C 61 %
77 22-03-2020 12:40:17 9.3 C 61 %
78 22-03-2020 12:50:18 9.3 C 61 %
79 22-03-2020 13:00:18 9.3 C 61 %
80 22-03-2020 13:10:18 9.3 C 61 %
81 22-03-2020 13:20:17 9.3 C 61 %
82 22-03-2020 13:30:18 9.3 C 61 %
83 22-03-2020 13:40:18 9.3 C 61 %
84 22-03-2020 13:50:18 9.3 C 61 %
85 22-03-2020 14:00:17 9.3 C 61 %
86 22-03-2020 14:10:17 9.3 C 61 %
87 22-03-2020 14:20:17 9.3 C 61 %
88 22-03-2020 14:30:17 9.3 C 61 %
89 22-03-2020 14:40:17 9.3 C 61 %
90 22-03-2020 14:50:17 9.3 C 61 %
91 22-03-2020 15:00:18 9.3 C 61 %
92 22-03-2020 15:10:18 9.4 C 61 %
93 22-03-2020 15:20:17 9.4 C 61 %
94 22-03-2020 15:30:17 9.4 C 61 %
95 22-03-2020 15:40:17 9.4 C 61 %
96 22-03-2020 15:50:18 9.4 C 62 %
97 22-03-2020 16:00:18 9.4 C 62 %
98 22-03-2020 16:10:18 9.4 C 62 %
99 22-03-2020 16:20:18 9.4 C 62 %
100 22-03-2020 16:30:18 9.5 C 62 %
Sensor: Nr:Datum:Temp:Feuchte:
G-T/H 101 22-03-2020 16:40:18 9.5 C 62 %
102 22-03-2020 16:50:17 9.4 C 62 %
103 22-03-2020 17:00:17 9.5 C 62 %
104 22-03-2020 17:10:17 9.4 C 62 %
105 22-03-2020 17:20:17 9.5 C 62 %
106 22-03-2020 17:30:17 9.5 C 62 %
107 22-03-2020 17:40:17 9.5 C 62 %
108 22-03-2020 17:50:17 9.5 C 62 %
109 22-03-2020 18:00:18 9.5 C 62 %
110 22-03-2020 18:10:18 9.5 C 62 %
111 22-03-2020 18:20:17 9.5 C 62 %
112 22-03-2020 18:30:17 9.5 C 62 %
113 22-03-2020 18:40:17 9.5 C 63 %
114 22-03-2020 18:50:17 9.5 C 63 %
115 22-03-2020 19:00:17 9.5 C 63 %
116 22-03-2020 19:10:17 9.5 C 63 %
117 22-03-2020 19:20:17 9.5 C 63 %
118 22-03-2020 19:30:17 9.5 C 63 %
119 22-03-2020 19:40:17 9.5 C 63 %
120 22-03-2020 19:50:18 9.5 C 63 %
121 22-03-2020 20:00:18 9.5 C 63 %
122 22-03-2020 20:10:18 9.5 C 64 %
123 22-03-2020 20:20:17 9.5 C 64 %
124 22-03-2020 20:30:17 9.5 C 64 %
125 22-03-2020 20:40:17 9.5 C 64 %
Sensor: Nr:Datum:Temp:Feuchte:
G-T/H 126 22-03-2020 20:50:17 9.5 C 64 %
127 22-03-2020 21:00:17 9.5 C 64 %
128 22-03-2020 21:10:17 9.5 C 64 %
129 22-03-2020 21:20:17 9.5 C 64 %
130 22-03-2020 21:30:17 9.5 C 64 %
131 22-03-2020 21:40:17 9.5 C 64 %
132 22-03-2020 21:50:18 9.5 C 64 %
133 22-03-2020 22:00:18 9.5 C 64 %
134 22-03-2020 22:10:18 9.5 C 64 %
135 22-03-2020 22:20:17 9.5 C 64 %
136 22-03-2020 22:30:17 9.5 C 64 %
137 22-03-2020 22:40:17 9.5 C 64 %
138 22-03-2020 22:50:17 9.5 C 64 %
139 22-03-2020 23:00:17 9.5 C 64 %
140 22-03-2020 23:10:17 9.4 C 64 %
141 22-03-2020 23:20:17 9.4 C 64 %
142 22-03-2020 23:30:18 9.4 C 64 %
143 22-03-2020 23:40:18 9.4 C 64 %
144 22-03-2020 23:50:18 9.4 C 63 %
145 23-03-2020 00:00:18 9.4 C 63 %
146 23-03-2020 00:10:18 9.4 C 63 %
147 23-03-2020 00:20:17 9.4 C 63 %
148 23-03-2020 00:30:17 9.4 C 63 %
149 23-03-2020 00:40:17 9.3 C 63 %
150 23-03-2020 00:50:18 9.3 C 63 %
Sensor: Nr:Datum:Temp:Feuchte:
G-T/H 151 23-03-2020 01:00:17 9.3 C 63 %
152 23-03-2020 01:10:17 9.3 C 63 %
153 23-03-2020 01:20:17 9.3 C 63 %
154 23-03-2020 01:30:18 9.3 C 63 %
155 23-03-2020 01:40:18 9.2 C 63 %
156 23-03-2020 01:50:18 9.2 C 63 %
157 23-03-2020 02:00:18 9.2 C 63 %
158 23-03-2020 02:10:18 9.2 C 63 %
159 23-03-2020 02:20:17 9.2 C 63 %
160 23-03-2020 02:30:17 9.2 C 63 %
161 23-03-2020 02:40:17 9.1 C 63 %
162 23-03-2020 02:50:17 9.1 C 63 %
163 23-03-2020 03:00:17 9.1 C 63 %
164 23-03-2020 03:10:18 9.1 C 63 %
165 23-03-2020 03:20:18 9.1 C 63 %
166 23-03-2020 03:30:18 9.1 C 63 %
167 23-03-2020 03:40:18 9.1 C 63 %
168 23-03-2020 03:50:18 9 C 62 %
169 23-03-2020 04:00:18 9 C 62 %
170 23-03-2020 04:10:18 9 C 62 %
171 23-03-2020 04:20:17 9 C 62 %
172 23-03-2020 04:30:17 9 C 62 %
173 23-03-2020 04:40:17 9 C 62 %
174 23-03-2020 04:50:17 8.9 C 63 %
175 23-03-2020 05:00:18 8.9 C 63 %
Sensor: Nr:Datum:Temp:Feuchte:
G-T/H 176 23-03-2020 05:10:18 8.9 C 63 %
177 23-03-2020 05:20:17 8.9 C 63 %
178 23-03-2020 05:30:18 8.9 C 63 %
179 23-03-2020 05:40:18 8.8 C 63 %
180 23-03-2020 05:50:17 8.8 C 63 %
181 23-03-2020 06:00:18 8.8 C 63 %
182 23-03-2020 06:10:18 8.8 C 63 %
183 23-03-2020 06:20:17 8.8 C 63 %
184 23-03-2020 06:30:18 8.7 C 63 %
185 23-03-2020 06:40:18 8.7 C 63 %
186 23-03-2020 06:50:18 8.7 C 63 %
187 23-03-2020 07:00:18 8.7 C 62 %
188 23-03-2020 07:10:18 8.6 C 62 %
189 23-03-2020 07:20:18 8.6 C 62 %
190 23-03-2020 07:30:18 8.6 C 62 %
191 23-03-2020 07:40:18 8.6 C 62 %
192 23-03-2020 07:50:18 8.6 C 62 %
193 23-03-2020 08:00:18 8.6 C 62 %
194 23-03-2020 08:10:18 8.5 C 62 %
195 23-03-2020 08:20:17 8.5 C 62 %
196 23-03-2020 08:30:18 8.5 C 62 %
197 23-03-2020 08:40:18 8.5 C 62 %
198 23-03-2020 08:50:18 8.5 C 62 %
199 23-03-2020 09:00:18 8.5 C 62 %
200 23-03-2020 09:10:18 8.5 C 62 %
Sensor: Nr:Datum:Temp:Feuchte:
G-T/H 201 23-03-2020 09:20:18 8.5 C 62 %
202 23-03-2020 09:30:17 8.4 C 62 %
203 23-03-2020 09:40:17 8.4 C 62 %
204 23-03-2020 09:50:18 8.4 C 62 %
205 23-03-2020 10:00:18 8.4 C 62 %
206 23-03-2020 10:10:18 8.4 C 62 %
207 23-03-2020 10:20:18 8.4 C 62 %
208 23-03-2020 10:30:17 8.4 C 62 %
209 23-03-2020 10:40:17 8.4 C 62 %
210 23-03-2020 10:50:17 8.4 C 62 %
211 23-03-2020 11:00:17 8.4 C 62 %
212 23-03-2020 11:10:17 8.4 C 62 %
213 23-03-2020 11:20:17 8.4 C 62 %
214 23-03-2020 11:30:18 8.4 C 62 %
215 23-03-2020 11:40:18 8.4 C 62 %
216 23-03-2020 11:50:17 8.4 C 62 %
217 23-03-2020 12:00:18 8.4 C 62 %
218 23-03-2020 12:10:18 8.4 C 62 %
219 23-03-2020 12:20:18 8.4 C 62 %
220 23-03-2020 12:30:18 8.4 C 62 %
221 23-03-2020 12:40:18 8.4 C 62 %
222 23-03-2020 12:50:18 8.4 C 62 %
223 23-03-2020 13:00:17 8.4 C 62 %
224 23-03-2020 13:10:17 8.4 C 62 %
225 23-03-2020 13:20:17 8.4 C 62 %
Sensor: Nr:Datum:Temp:Feuchte:
G-T/H 226 23-03-2020 13:30:17 8.4 C 62 %
227 23-03-2020 13:40:17 8.4 C 62 %
228 23-03-2020 13:50:17 8.4 C 62 %
229 23-03-2020 14:00:18 8.4 C 62 %
230 23-03-2020 14:10:18 8.4 C 62 %
231 23-03-2020 14:20:18 8.4 C 62 %
232 23-03-2020 14:30:18 8.4 C 62 %
233 23-03-2020 14:40:18 8.4 C 63 %
234 23-03-2020 14:50:18 8.4 C 63 %
235 23-03-2020 15:00:18 8.4 C 63 %
236 23-03-2020 15:10:18 8.4 C 63 %
237 23-03-2020 15:20:17 8.4 C 63 %
238 23-03-2020 15:30:17 8.5 C 63 %
239 23-03-2020 15:40:17 8.5 C 63 %
240 23-03-2020 15:50:17 8.5 C 63 %
241 23-03-2020 16:00:17 8.5 C 63 %
242 23-03-2020 16:10:17 8.5 C 63 %
243 23-03-2020 16:20:17 8.5 C 63 %
244 23-03-2020 16:30:18 8.5 C 63 %
245 23-03-2020 16:40:18 8.6 C 63 %
246 23-03-2020 16:50:17 8.5 C 63 %
247 23-03-2020 17:00:18 8.5 C 63 %
248 23-03-2020 17:10:18 8.5 C 63 %
249 23-03-2020 17:20:18 8.6 C 63 %
250 23-03-2020 17:30:18 8.6 C 63 %
Sensor: Nr:Datum:Temp:Feuchte:
G-T/H 251 23-03-2020 17:40:18 8.6 C 63 %
252 23-03-2020 17:50:17 8.6 C 63 %
253 23-03-2020 18:00:18 8.6 C 63 %
254 23-03-2020 18:10:18 8.6 C 64 %
255 23-03-2020 18:20:17 8.6 C 64 %
256 23-03-2020 18:30:18 8.6 C 64 %
257 23-03-2020 18:40:18 8.6 C 64 %
258 23-03-2020 18:50:18 8.6 C 64 %
259 23-03-2020 19:00:18 8.6 C 64 %
260 23-03-2020 19:10:18 8.6 C 64 %
261 23-03-2020 19:20:17 8.6 C 64 %
262 23-03-2020 19:30:18 8.6 C 64 %
263 23-03-2020 19:40:18 8.6 C 64 %
264 23-03-2020 19:50:18 8.6 C 64 %
265 23-03-2020 20:00:17 8.6 C 64 %
266 23-03-2020 20:10:17 8.6 C 64 %
267 23-03-2020 20:20:17 8.6 C 64 %
268 23-03-2020 20:30:18 8.6 C 64 %
269 23-03-2020 20:40:18 8.6 C 64 %
270 23-03-2020 20:50:18 8.6 C 64 %
271 23-03-2020 21:00:18 8.6 C 64 %
272 23-03-2020 21:10:18 8.6 C 64 %
273 23-03-2020 21:20:17 8.6 C 64 %
274 23-03-2020 21:30:18 8.6 C 64 %
275 23-03-2020 21:40:18 8.6 C 64 %
Sensor: Nr:Datum:Temp:Feuchte:
G-T/H 276 23-03-2020 21:50:18 8.6 C 64 %
277 23-03-2020 22:00:17 8.6 C 64 %
278 23-03-2020 22:10:18 8.6 C 64 %
279 23-03-2020 22:20:18 8.6 C 64 %
280 23-03-2020 22:30:18 8.6 C 64 %
281 23-03-2020 22:40:18 8.6 C 64 %
282 23-03-2020 22:50:18 8.6 C 64 %
283 23-03-2020 23:00:18 8.6 C 64 %
284 23-03-2020 23:10:18 8.6 C 64 %
285 23-03-2020 23:20:17 8.6 C 64 %
286 23-03-2020 23:30:17 8.6 C 64 %
287 23-03-2020 23:40:17 8.6 C 64 %
288 23-03-2020 23:50:18 8.5 C 64 %
289 24-03-2020 00:00:18 8.5 C 64 %
290 24-03-2020 00:10:18 8.5 C 64 %
291 24-03-2020 00:20:17 8.5 C 64 %
292 24-03-2020 00:30:18 8.5 C 64 %
293 24-03-2020 00:40:18 8.5 C 64 %
294 24-03-2020 00:50:18 8.5 C 64 %
295 24-03-2020 01:00:18 8.5 C 64 %
296 24-03-2020 01:10:18 8.5 C 64 %
297 24-03-2020 01:20:18 8.4 C 64 %
298 24-03-2020 01:30:18 8.4 C 64 %
299 24-03-2020 01:40:18 8.4 C 64 %
300 24-03-2020 01:50:18 8.4 C 64 %
Sensor: Nr:Datum:Temp:Feuchte:
G-T/H 301 24-03-2020 02:00:18 8.4 C 64 %
302 24-03-2020 02:10:18 8.4 C 63 %
303 24-03-2020 02:20:17 8.4 C 63 %
304 24-03-2020 02:30:17 8.4 C 63 %
305 24-03-2020 02:40:17 8.3 C 63 %
306 24-03-2020 02:50:17 8.3 C 63 %
307 24-03-2020 03:00:17 8.3 C 63 %
308 24-03-2020 03:10:17 8.2 C 63 %
309 24-03-2020 03:20:17 8.3 C 63 %
310 24-03-2020 03:30:17 8.3 C 63 %
311 24-03-2020 03:40:17 8.3 C 63 %
312 24-03-2020 03:50:17 8.2 C 63 %
313 24-03-2020 04:00:18 8.2 C 63 %
314 24-03-2020 04:10:18 8.2 C 63 %
315 24-03-2020 04:20:18 8.2 C 63 %
316 24-03-2020 04:30:18 8.1 C 63 %
317 24-03-2020 04:40:18 8.1 C 63 %
318 24-03-2020 04:50:17 8.1 C 63 %
319 24-03-2020 05:00:17 8.1 C 63 %
320 24-03-2020 05:10:17 8.1 C 63 %
321 24-03-2020 05:20:17 8.1 C 63 %
322 24-03-2020 05:30:18 8.1 C 63 %
323 24-03-2020 05:40:18 8 C 63 %
324 24-03-2020 05:50:18 8 C 63 %
325 24-03-2020 06:00:17 8 C 63 %
Sensor: Nr:Datum:Temp:Feuchte:
G-T/H 326 24-03-2020 06:10:18 8 C 63 %
327 24-03-2020 06:20:17 8 C 62 %
328 24-03-2020 06:30:18 7.9 C 63 %
329 24-03-2020 06:40:18 7.9 C 63 %
330 24-03-2020 06:50:18 8 C 62 %
331 24-03-2020 07:00:18 7.9 C 63 %
332 24-03-2020 07:10:18 7.9 C 63 %
333 24-03-2020 07:20:18 7.9 C 63 %
334 24-03-2020 07:30:18 7.9 C 63 %
335 24-03-2020 07:40:18 7.9 C 63 %
336 24-03-2020 07:50:17 7.8 C 63 %
337 24-03-2020 08:00:17 7.8 C 63 %
338 24-03-2020 08:10:17 7.8 C 63 %
339 24-03-2020 08:20:17 7.8 C 63 %
340 24-03-2020 08:30:17 7.8 C 63 %
341 24-03-2020 08:40:17 7.8 C 63 %
342 24-03-2020 08:50:17 7.8 C 63 %
343 24-03-2020 09:00:17 7.8 C 63 %
344 24-03-2020 09:10:17 7.8 C 63 %
345 24-03-2020 09:20:17 7.8 C 63 %
346 24-03-2020 09:30:17 7.8 C 63 %
347 24-03-2020 09:40:17 7.8 C 63 %
348 24-03-2020 09:50:18 7.8 C 63 %
349 24-03-2020 10:00:18 7.8 C 64 %
350 24-03-2020 10:10:18 7.8 C 64 %
Sensor: Nr:Datum:Temp:Feuchte:
G-T/H 351 24-03-2020 10:20:17 7.8 C 64 %
352 24-03-2020 10:30:17 7.7 C 64 %
353 24-03-2020 10:40:17 7.7 C 64 %
354 24-03-2020 10:50:17 7.7 C 64 %
355 24-03-2020 11:00:18 7.7 C 64 %
356 24-03-2020 11:10:18 7.8 C 64 %
357 24-03-2020 11:20:17 7.7 C 64 %
358 24-03-2020 11:30:17 7.7 C 64 %
359 24-03-2020 11:40:17 7.7 C 64 %
360 24-03-2020 11:50:18 7.7 C 64 %
361 24-03-2020 12:00:18 7.7 C 64 %
362 24-03-2020 12:10:18 7.7 C 64 %
363 24-03-2020 12:20:17 7.7 C 64 %
364 24-03-2020 12:30:17 7.8 C 64 %
365 24-03-2020 12:40:17 7.8 C 64 %
366 24-03-2020 12:50:17 7.8 C 64 %
367 24-03-2020 13:00:18 7.8 C 65 %
368 24-03-2020 13:10:18 7.8 C 65 %
369 24-03-2020 13:20:17 7.8 C 64 %
370 24-03-2020 13:30:17 7.8 C 64 %
371 24-03-2020 13:40:17 7.8 C 64 %
372 24-03-2020 13:50:18 7.8 C 64 %
373 24-03-2020 14:00:17 7.8 C 64 %
374 24-03-2020 14:10:17 7.8 C 65 %
375 24-03-2020 14:20:17 7.8 C 65 %
Sensor: Nr:Datum:Temp:Feuchte:
G-T/H 376 24-03-2020 14:30:17 7.8 C 65 %
377 24-03-2020 14:40:17 7.9 C 64 %
378 24-03-2020 14:50:18 7.9 C 64 %
379 24-03-2020 15:00:18 7.8 C 64 %
380 24-03-2020 15:10:18 7.9 C 64 %
381 24-03-2020 15:20:18 7.9 C 64 %
382 24-03-2020 15:30:18 7.9 C 64 %
383 24-03-2020 15:40:18 7.9 C 64 %
384 24-03-2020 15:50:18 7.9 C 64 %
385 24-03-2020 16:00:18 7.9 C 64 %
386 24-03-2020 16:10:18 7.9 C 64 %
387 24-03-2020 16:20:18 7.9 C 64 %
388 24-03-2020 16:30:18 7.9 C 64 %
389 24-03-2020 16:40:18 7.9 C 64 %
390 24-03-2020 16:50:18 7.9 C 64 %
391 24-03-2020 17:00:18 8 C 63 %
392 24-03-2020 17:10:18 8 C 63 %
393 24-03-2020 17:20:18 8 C 63 %
394 24-03-2020 17:30:18 8 C 64 %
395 24-03-2020 17:40:18 8 C 64 %
396 24-03-2020 17:50:17 8.1 C 64 %
397 24-03-2020 18:00:17 8.1 C 64 %
398 24-03-2020 18:10:17 8.1 C 64 %
399 24-03-2020 18:20:17 8.1 C 64 %
400 24-03-2020 18:30:17 8.1 C 64 %
Sensor: Nr:Datum:Temp:Feuchte:
G-T/H 401 24-03-2020 18:40:18 8.2 C 65 %
402 24-03-2020 18:50:17 8.1 C 65 %
403 24-03-2020 19:00:18 8.2 C 65 %
404 24-03-2020 19:10:18 8.2 C 65 %
405 24-03-2020 19:20:18 8.1 C 65 %
406 24-03-2020 19:30:18 8.1 C 65 %
407 24-03-2020 19:40:18 8.2 C 65 %
408 24-03-2020 19:50:17 8.2 C 65 %
409 24-03-2020 20:00:18 8.2 C 65 %
410 24-03-2020 20:10:18 8.2 C 65 %
411 24-03-2020 20:20:17 8.2 C 65 %
412 24-03-2020 20:30:18 8.2 C 65 %
413 24-03-2020 20:40:18 8.2 C 65 %
414 24-03-2020 20:50:18 8.2 C 65 %
415 24-03-2020 21:00:18 8.2 C 65 %
416 24-03-2020 21:10:18 8.2 C 65 %
417 24-03-2020 21:20:17 8.2 C 65 %
418 24-03-2020 21:30:17 8.2 C 65 %
419 24-03-2020 21:40:17 8.2 C 65 %
420 24-03-2020 21:50:17 8.2 C 65 %
421 24-03-2020 22:00:18 8.2 C 65 %
422 24-03-2020 22:10:18 8.2 C 65 %
423 24-03-2020 22:20:17 8.2 C 65 %
424 24-03-2020 22:30:18 8.2 C 65 %
425 24-03-2020 22:40:18 8.2 C 65 %
Sensor: Nr:Datum:Temp:Feuchte:
G-T/H 426 24-03-2020 22:50:17 8.2 C 65 %
427 24-03-2020 23:00:18 8.2 C 65 %
428 24-03-2020 23:10:18 8.2 C 64 %
429 24-03-2020 23:20:17 8.2 C 64 %
430 24-03-2020 23:30:18 8.2 C 64 %
431 24-03-2020 23:40:18 8.2 C 64 %
432 24-03-2020 23:50:18 8.2 C 64 %

Legende:
   Min
   Max


Maximal/Minimal-Werte vom 22.03.2020 - 24.03.2020

Sensor Min Max Avg
Temp
(Aussen-T/F)
-4.7 °C
24-03-2020  06:00:17
16.2 °C
22-03-2020  16:00:18
3.42 °C
Feuchte
(Aussen-T/F)
20 %
22-03-2020  10:20:18
39 %
22-03-2020  03:40:18
27.81 %
Temp
(G-T/H)
7.7 °C
24-03-2020  10:30:17
10.7 °C
22-03-2020  00:00:18
8.79 °C
Feuchte
(G-T/H)
58 %
22-03-2020  02:20:17
65 %
24-03-2020  13:00:18
62.66 %

Die Daten stammen von einer Davis Vantage Pro 2 Wetter-Station und werden unter Linux mit der Software wview2wettercgi und aufbereitet. Alle Angaben erfolgen ohne Gewähr für ihre Vollständigkeit oder Richtigkeit.
Kontakt: Rainer Krienke krienke@uni-koblenz.de . Meine Webseiten an der Uni Koblenz oder privat.
Version: $Revision: 0.78 $